• In Lithuania
  • List of Countries
  • For 7 days
  • Water Temperature
  • Satellite Maps
  • Weather Map
  • Weather Widgets
  • user-avatar
    Login

    Hourly Weather Disa

    Today, 23 June, Saturday

    Time Temperature Precipitation Wind Pressure Humidity
    00:00 +36°C° 0.1 mm 3 mps 740 mmHg 53%
    01:00 +35°C° 0.1 mm 3 mps 740 mmHg 57%
    02:00 +34°C° 0.1 mm 4 mps 740 mmHg 60%
    03:00 +34°C° 0.8 mm 3 mps 741 mmHg 62%
    04:00 +33°C° 0.8 mm 3 mps 741 mmHg 65%
    05:00 +33°C° 0 mm 3 mps 740 mmHg 68%
    06:00 +34°C° 0 mm 3 mps 740 mmHg 68%
    07:00 +34°C° 0 mm 3 mps 740 mmHg 68%
    08:00 +34°C° 0 mm 3 mps 741 mmHg 68%
    09:00 +35°C° 0 mm 3 mps 741 mmHg 62%
    10:00 +37°C° 0 mm 3 mps 740 mmHg 57%
    11:00 +39°C° 0 mm 1 mps 741 mmHg 49%
    12:00 +39°C° 0 mm 1 mps 740 mmHg 46%
    13:00 +39°C° 0 mm 2 mps 740 mmHg 44%
    14:00 +40°C° 0 mm 2 mps 739 mmHg 42%
    15:00 +40°C° 0 mm 2 mps 739 mmHg 41%
    16:00 +40°C° 0 mm 2 mps 739 mmHg 40%
    17:00 +42°C° 0 mm 3 mps 738 mmHg 38%
    18:00 +40°C° 0.5 mm 3 mps 738 mmHg 39%
    19:00 +40°C° 0.5 mm 2 mps 739 mmHg 40%
    20:00 +39°C° 0.5 mm 2 mps 739 mmHg 42%
    21:00 +38°C° 0.2 mm 3 mps 739 mmHg 44%
    22:00 +38°C° 0.2 mm 3 mps 740 mmHg 46%
    23:00 +37°C° 0.2 mm 4 mps 740 mmHg 48%

    Tomorrow, 24 June, Sunday

    Time Temperature Precipitation Wind Pressure Humidity
    00:00 +36°C° 0.1 mm 4 mps 740 mmHg 52%
    01:00 +35°C° 0.1 mm 5 mps 739 mmHg 57%
    02:00 +35°C° 0.1 mm 5 mps 739 mmHg 61%
    03:00 +34°C° 0 mm 5 mps 739 mmHg 64%
    04:00 +34°C° 0 mm 5 mps 740 mmHg 67%
    05:00 +33°C° 0 mm 4 mps 740 mmHg 70%
    06:00 +33°C° 0 mm 4 mps 740 mmHg 69%
    07:00 +34°C° 0 mm 4 mps 740 mmHg 67%
    08:00 +34°C° 0 mm 4 mps 741 mmHg 66%
    09:00 +35°C° 0 mm 4 mps 741 mmHg 62%
    10:00 +36°C° 0 mm 4 mps 741 mmHg 58%
    11:00 +37°C° 0 mm 3 mps 741 mmHg 53%
    12:00 +38°C° 0 mm 3 mps 740 mmHg 48%
    13:00 +41°C° 0 mm 4 mps 740 mmHg 43%
    14:00 +42°C° 0 mm 4 mps 739 mmHg 38%
    15:00 +42°C° 0 mm 4 mps 739 mmHg 37%
    16:00 +42°C° 0 mm 4 mps 739 mmHg 36%
    17:00 +42°C° 0 mm 4 mps 738 mmHg 35%
    18:00 +42°C° 0 mm 5 mps 738 mmHg 37%
    19:00 +41°C° 0 mm 5 mps 738 mmHg 38%
    20:00 +40°C° 0 mm 5 mps 739 mmHg 40%
    21:00 +39°C° 0 mm 6 mps 739 mmHg 44%
    22:00 +38°C° 0 mm 6 mps 739 mmHg 48%
    23:00 +36°C° 0 mm 6 mps 740 mmHg 52%

    Day after tomorrow, 25 June, Monday

    Time Temperature Precipitation Wind Pressure Humidity
    00:00 +35°C° 0 mm 6 mps 740 mmHg 56%
    01:00 +35°C° 0 mm 6 mps 740 mmHg 59%
    02:00 +34°C° 0 mm 6 mps 739 mmHg 63%
    03:00 +34°C° 0 mm 6 mps 739 mmHg 64%
    04:00 +33°C° 0 mm 5 mps 739 mmHg 66%
    05:00 +33°C° 0 mm 5 mps 739 mmHg 68%
    06:00 +33°C° 0 mm 5 mps 740 mmHg 67%
    07:00 +33°C° 0 mm 5 mps 740 mmHg 65%
    08:00 +34°C° 0 mm 5 mps 740 mmHg 64%
    09:00 +35°C° 0 mm 5 mps 740 mmHg 58%
    10:00 +37°C° 0 mm 5 mps 740 mmHg 52%
    11:00 +39°C° 0 mm 5 mps 740 mmHg 46%
    12:00 +40°C° 0 mm 6 mps 739 mmHg 42%
    13:00 +41°C° 0 mm 6 mps 738 mmHg 39%
    14:00 +42°C° 0 mm 6 mps 738 mmHg 35%
    15:00 +42°C° 0 mm 6 mps 737 mmHg 36%
    16:00 +41°C° 0 mm 6 mps 737 mmHg 37%
    17:00 +41°C° 0 mm 6 mps 737 mmHg 38%
    18:00 +40°C° 0 mm 6 mps 737 mmHg 41%
    19:00 +39°C° 0 mm 6 mps 737 mmHg 44%
    20:00 +38°C° 0 mm 7 mps 738 mmHg 47%
    21:00 +36°C° 0 mm 7 mps 738 mmHg 50%
    22:00 +35°C° 0 mm 7 mps 738 mmHg 54%
    23:00 +34°C° 0 mm 7 mps 738 mmHg 58%

    26 June, Tuesday

    Time Temperature Precipitation Wind Pressure Humidity
    00:00 +34°C° 0 mm 7 mps 738 mmHg 61%
    01:00 +33°C° 0 mm 6 mps 738 mmHg 63%
    02:00 +33°C° 0 mm 6 mps 738 mmHg 66%
    03:00 +33°C° 0.1 mm 5 mps 738 mmHg 67%
    04:00 +32°C° 0.1 mm 5 mps 738 mmHg 68%
    05:00 +32°C° 0.1 mm 5 mps 738 mmHg 68%
    06:00 +33°C° 0.1 mm 5 mps 738 mmHg 65%
    07:00 +34°C° 0.1 mm 5 mps 738 mmHg 62%
    08:00 +34°C° 0.1 mm 5 mps 739 mmHg 59%
    09:00 +35°C° 0 mm 6 mps 739 mmHg 55%
    10:00 +38°C° 0 mm 6 mps 738 mmHg 50%
    11:00 +39°C° 0 mm 6 mps 738 mmHg 45%
    12:00 +39°C° 0 mm 6 mps 738 mmHg 44%
    13:00 +39°C° 0 mm 6 mps 737 mmHg 44%
    14:00 +39°C° 0 mm 6 mps 737 mmHg 43%
    15:00 +39°C° 0 mm 6 mps 737 mmHg 44%
    16:00 +39°C° 0 mm 6 mps 737 mmHg 45%
    17:00 +38°C° 0 mm 6 mps 737 mmHg 46%
    18:00 +38°C° 0 mm 6 mps 737 mmHg 48%
    19:00 +36°C° 0 mm 6 mps 737 mmHg 50%
    20:00 +36°C° 0 mm 5 mps 737 mmHg 52%
    21:00 +35°C° 0 mm 5 mps 738 mmHg 54%
    22:00 +35°C° 0 mm 5 mps 738 mmHg 56%
    23:00 +34°C° 0 mm 5 mps 739 mmHg 58%

    27 June, Wednesday

    Time Temperature Precipitation Wind Pressure Humidity
    00:00 +34°C° 0 mm 5 mps 738 mmHg 60%
    01:00 +33°C° 0 mm 5 mps 738 mmHg 63%
    02:00 +33°C° 0 mm 5 mps 738 mmHg 65%
    03:00 +33°C° 0 mm 5 mps 738 mmHg 66%
    04:00 +32°C° 0 mm 4 mps 738 mmHg 68%
    05:00 +32°C° 0 mm 4 mps 738 mmHg 70%
    06:00 +33°C° 0 mm 4 mps 738 mmHg 67%
    07:00 +33°C° 0 mm 4 mps 738 mmHg 64%
    08:00 +34°C° 0 mm 4 mps 739 mmHg 61%
    09:00 +35°C° 0 mm 4 mps 739 mmHg 56%
    10:00 +36°C° 0 mm 4 mps 739 mmHg 51%
    11:00 +37°C° 0 mm 4 mps 739 mmHg 45%
    12:00 +38°C° 0 mm 4 mps 738 mmHg 45%
    13:00 +39°C° 0 mm 5 mps 738 mmHg 44%
    14:00 +39°C° 0 mm 5 mps 737 mmHg 43%
    15:00 +38°C° 0 mm 4 mps 737 mmHg 41%
    16:00 +40°C° 0 mm 4 mps 737 mmHg 40%
    17:00 +40°C° 0 mm 4 mps 737 mmHg 38%
    18:00 +38°C° 0 mm 4 mps 737 mmHg 39%
    19:00 +38°C° 0 mm 4 mps 737 mmHg 40%
    20:00 +37°C° 0 mm 3 mps 738 mmHg 42%
    21:00 +37°C° 0 mm 3 mps 738 mmHg 44%
    22:00 +36°C° 0 mm 4 mps 738 mmHg 46%
    23:00 +36°C° 0 mm 4 mps 738 mmHg 47%

    28 June, Thursday

    Time Temperature Precipitation Wind Pressure Humidity
    00:00 +35°C° 0 mm 4 mps 738 mmHg 50%
    01:00 +35°C° 0 mm 4 mps 738 mmHg 53%
    02:00 +34°C° 0 mm 4 mps 737 mmHg 56%
    03:00 +34°C° 0.1 mm 4 mps 738 mmHg 59%
    04:00 +34°C° 0.1 mm 4 mps 738 mmHg 61%
    05:00 +33°C° 0.1 mm 4 mps 738 mmHg 64%
    06:00 +33°C° 0.4 mm 3 mps 738 mmHg 63%
    07:00 +33°C° 0.4 mm 3 mps 739 mmHg 63%
    08:00 +34°C° 0.4 mm 3 mps 739 mmHg 62%
    09:00 +35°C° 0.4 mm 3 mps 739 mmHg 58%
    10:00 +36°C° 0.4 mm 3 mps 739 mmHg 53%
    11:00 +37°C° 0.4 mm 3 mps 739 mmHg 49%
    12:00 +37°C° 0.1 mm 3 mps 739 mmHg 46%
    13:00 +38°C° 0.1 mm 3 mps 738 mmHg 44%
    14:00 +38°C° 0.1 mm 3 mps 738 mmHg 42%
    15:00 +38°C° 0.2 mm 3 mps 738 mmHg 41%
    16:00 +38°C° 0.2 mm 2 mps 738 mmHg 40%
    17:00 +39°C° 0.2 mm 2 mps 737 mmHg 39%
    18:00 +38°C° 0 mm 2 mps 738 mmHg 40%
    19:00 +38°C° 0 mm 2 mps 738 mmHg 41%
    20:00 +38°C° 0 mm 2 mps 738 mmHg 42%
    21:00 +37°C° 0 mm 2 mps 739 mmHg 44%
    22:00 +37°C° 0 mm 3 mps 739 mmHg 46%
    23:00 +36°C° 0 mm 3 mps 739 mmHg 48%
    Show more